User: anonymous   Login
Location: Fremont
(37.5480°N, 121.9880°W)
Time: 22:56:19
(UTC-07:00)
Language:

Cosmos 1844 Rocket - Orbit

View from above orbital plane
View from above orbital plane
View from above satellite
View from above satellite

Ground track
Ground track

The orbit data is extracted from the following two-line orbital elements,

1 17974U 87041B   16122.91236433 -.00000102  00000-0 -26575-4 0  9995
2 17974  71.0095  56.3373 0015960 297.2763 124.8618 14.17202639498417
Epoch (UTC): 01 May 2016 21:53:48
Eccentricity: 0.0015960
inclination: 71.0095°
perigee height: 823 km
apogee height: 846 km
right ascension of ascending node: 56.3373°
argument of perigee: 297.2763°
revolutions per day: 14.17202639
mean anomaly at epoch: 124.8618°
orbit number at epoch: 49841

The dashed part of the orbit path shows where the satellite is in the earth's shadow,  

DLR